Location: Proctor
(47.8934°N, 114.3048°W)
Time: 07:06:43
(UTC+00:00)

Vanguard 2 Rocket - Pass Details

Date: 20 June 2024
Orbit: 555 x 3303 km, 32.9° (Epoch: 13 July)

Event Time Altitude Azimuth Distance (km) Brightness Sun altitude
Exits shadow 10:55:33 - 229° (SW) 6,535 10.6 -6.2°
Reaches altitude 10° 10:57:22 10° 227° (SW) 6,214 10.4 -5.9°
Maximum altitude 11:15:17 43° 166° (SSE) 3,905 9.9 -3.8°
Drops below altitude 10° 11:29:34 10° 102° (ESE) 5,031 11.3 -1.9°
Sets 11:33:07 0° 96° (E) 5,710 11.8 -1.5°
